| time (UTC) | temp F | wind direction | speed MPH | gust MPH | rain 1hr in | rain 24hr in | rain mn in | humidity % | barometer mb |
| 20260503060236 | 54 | 75 | 0.0 | 0.0 | 0.00 | 0.01 | 0.00 | 85 | 1015.5 |
| 20260503053736 | 54 | 74 | 0.0 | 0.0 | 0.00 | 0.01 | 0.00 | 84 | 1015.5 |
| 20260503050736 | 54 | 48 | 0.0 | 0.0 | 0.00 | 0.02 | 0.00 | 84 | 1015.3 |
| 20260503050236 | 54 | 38 | 0.0 | 0.0 | 0.00 | 0.02 | 0.00 | 84 | 1015.3 |
| 20260503043236 | 54 | 48 | 0.0 | 0.0 | 0.00 | 0.02 | 0.00 | 84 | 1015.0 |
| 20260503040736 | 55 | 73 | 0.0 | 0.0 | 0.00 | 0.02 | 0.00 | 83 | 1015.2 |
| 20260503033236 | 55 | 73 | 0.0 | 0.0 | 0.00 | 0.02 | 0.00 | 83 | 1015.5 |
| 20260503030736 | 56 | 309 | 0.0 | 0.0 | 0.00 | 0.02 | 0.00 | 83 | 1015.6 |
| 20260503030236 | 56 | 309 | 0.0 | 0.0 | 0.00 | 0.02 | 0.00 | 82 | 1015.7 |
| 20260503023736 | 56 | 309 | 0.0 | 0.0 | 0.00 | 0.02 | 0.00 | 82 | 1016.0 |
| 20260503020236 | 56 | 71 | 0.0 | 0.0 | 0.00 | 0.02 | 0.00 | 82 | 1015.9 |
| 20260503013236 | 57 | 71 | 0.0 | 0.0 | 0.00 | 0.02 | 0.00 | 82 | 1015.9 |
| 20260503010736 | 57 | 71 | 0.0 | 0.0 | 0.00 | 0.02 | 0.00 | 82 | 1016.2 |
| 20260503000735 | 57 | 68 | 0.0 | 0.0 | 0.00 | 0.02 | 0.00 | 81 | 1016.9 |
| 20260503000235 | 57 | 68 | 0.0 | 0.0 | 0.00 | 0.02 | 0.00 | 81 | 1016.9 |
| 20260502233736 | 57 | 67 | 0.0 | 0.0 | 0.00 | 0.02 | 0.00 | 81 | 1017.4 |
| 20260502230735 | 57 | 67 | 0.0 | 0.0 | 0.00 | 0.02 | 0.00 | 81 | 1017.6 |
| 20260502230236 | 57 | 67 | 0.0 | 0.0 | 0.00 | 0.02 | 0.00 | 81 | 1017.6 |
| 20260502220235 | 57 | 80 | 0.0 | 0.0 | 0.00 | 0.02 | 0.00 | 82 | 1017.9 |
| 20260502213735 | 58 | 79 | 0.0 | 0.0 | 0.00 | 0.02 | 0.02 | 81 | 1018.0 |
| 20260502210235 | 58 | 80 | 0.0 | 0.0 | 0.00 | 0.02 | 0.02 | 80 | 1018.3 |
| 20260502193235 | 60 | 95 | 2.0 | 7.0 | 0.00 | 0.02 | 0.02 | 74 | 1017.8 |
| 20260502190735 | 60 | 101 | 1.0 | 6.0 | 0.00 | 0.02 | 0.02 | 69 | 1017.6 |
| 20260502180235 | 62 | 106 | 0.0 | 0.0 | 0.00 | 0.02 | 0.02 | 62 | 1017.3 |
| 20260502170235 | 63 | 127 | 2.0 | 10.0 | 0.00 | 0.02 | 0.02 | 52 | 1017.7 |
| 20260502163234 | 64 | 125 | 1.0 | 12.0 | 0.00 | 0.02 | 0.02 | 59 | 1018.2 |
| 20260502160235 | 65 | 97 | 5.0 | 10.0 | 0.00 | 0.02 | 0.02 | 57 | 1018.1 |
| 20260502123234 | 66 | 103 | 1.0 | 10.0 | 0.00 | 0.02 | 0.02 | 61 | 1020.1 |
| 20260502120734 | 65 | 78 | 5.0 | 10.0 | 0.00 | 0.02 | 0.02 | 63 | 1020.4 |
| 20260502120234 | 64 | 80 | 2.0 | 10.0 | 0.00 | 0.02 | 0.02 | 65 | 1020.6 |
| 20260502103734 | 60 | 48 | 2.0 | 9.0 | 0.00 | 0.02 | 0.02 | 79 | 1021.4 |
| 20260502100234 | 58 | 65 | 0.0 | 0.0 | 0.00 | 0.02 | 0.02 | 81 | 1022.0 |
| 20260502090234 | 58 | 49 | 0.0 | 0.0 | 0.00 | 0.02 | 0.02 | 83 | 1022.0 |
| 20260502070733 | 57 | 252 | 0.0 | 0.0 | 0.00 | 0.01 | 0.01 | 85 | 1021.8 |